Time,TemperatureF,DewpointF,PressureIn,WindDirection,WindDirectionDegrees,WindSpeedMPH,WindSpeedGustMPH,Humidity,HourlyPrecipIn,Conditions,Clouds,dailyrainin,SoftwareType,DateUTC
2013-06-08 17:07:00,78.3,66.4,29.85,ENE,67,0.0,-999.0,67,-99.99,,,0.00,Acu-Link.com,2013-06-08 21:07:00,
2013-06-08 17:23:00,78.3,66.8,29.85,SW,225,0.0,-999.0,68,-99.99,,,0.00,Acu-Link.com,2013-06-08 21:23:00,
2013-06-08 17:38:00,77.7,67.5,29.85,WNW,292,1.1,-999.0,71,-99.99,,,0.00,Acu-Link.com,2013-06-08 21:38:00,
2013-06-08 17:53:00,76.1,66.8,29.85,WNW,292,0.0,-999.0,73,-99.99,,,0.00,Acu-Link.com,2013-06-08 21:53:00,
2013-06-08 18:08:00,75.6,67.1,29.84,SW,225,0.0,-999.0,75,-99.99,,,0.00,Acu-Link.com,2013-06-08 22:08:00,
2013-06-08 18:23:00,75.6,67.1,29.85,West,270,0.0,-999.0,75,-99.99,,,0.00,Acu-Link.com,2013-06-08 22:23:00,
2013-06-08 18:39:00,75.6,67.1,29.85,NW,315,1.6,-999.0,75,-99.99,,,0.00,Acu-Link.com,2013-06-08 22:39:00,
2013-06-08 18:54:00,74.8,65.6,29.85,NW,315,0.0,-999.0,73,-99.99,,,0.00,Acu-Link.com,2013-06-08 22:54:00,
2013-06-08 19:09:00,73.8,65.7,29.86,West,270,0.0,-999.0,76,-99.99,,,0.00,Acu-Link.com,2013-06-08 23:09:00,
2013-06-08 19:24:00,73.8,65.3,29.86,WSW,247,2.2,-999.0,75,-99.99,,,0.00,Acu-Link.com,2013-06-08 23:24:00,
2013-06-08 19:39:00,73.2,65.6,29.88,West,270,0.0,-999.0,77,-99.99,,,0.00,Acu-Link.com,2013-06-08 23:39:00,
2013-06-08 19:55:00,71.4,64.2,29.87,West,270,0.0,-999.0,78,-99.99,,,0.00,Acu-Link.com,2013-06-08 23:55:00,
2013-06-08 20:10:00,70.2,63.7,29.88,West,270,0.0,-999.0,80,-99.99,,,0.00,Acu-Link.com,2013-06-09 00:10:00,
2013-06-08 20:25:00,69.4,63.3,29.88,West,270,1.1,-999.0,81,-99.99,,,0.00,Acu-Link.com,2013-06-09 00:25:00,
2013-06-08 20:40:00,68.7,62.6,29.90,West,270,0.0,-999.0,81,-99.99,,,0.00,Acu-Link.com,2013-06-09 00:40:00,
2013-06-08 20:56:00,67.8,62.1,29.90,SW,225,0.0,-999.0,82,-99.99,,,0.00,Acu-Link.com,2013-06-09 00:56:00,
2013-06-08 21:11:00,67.3,62.3,29.90,WSW,247,0.0,-999.0,84,-99.99,,,0.00,Acu-Link.com,2013-06-09 01:11:00,
2013-06-08 21:26:00,66.2,60.9,29.91,SW,225,0.0,-999.0,83,-99.99,,,0.00,Acu-Link.com,2013-06-09 01:26:00,
2013-06-08 21:41:00,65.5,60.5,29.92,West,270,0.0,-999.0,84,-99.99,,,0.00,Acu-Link.com,2013-06-09 01:41:00,
2013-06-08 21:56:00,64.9,60.3,29.92,WNW,292,0.0,-999.0,85,-99.99,,,0.00,Acu-Link.com,2013-06-09 01:56:00,
2013-06-08 22:12:00,64.4,60.4,29.93,SW,225,0.0,-999.0,87,-99.99,,,0.00,Acu-Link.com,2013-06-09 02:12:00,
2013-06-08 22:27:00,63.5,59.9,29.93,WNW,292,0.0,-999.0,88,-99.99,,,0.00,Acu-Link.com,2013-06-09 02:27:00,
2013-06-08 22:42:00,63.1,59.2,29.94,West,270,0.0,-999.0,87,-99.99,,,0.00,Acu-Link.com,2013-06-09 02:42:00,
2013-06-08 22:57:00,63.0,59.3,29.94,SSW,202,0.0,-999.0,88,-99.99,,,0.00,Acu-Link.com,2013-06-09 02:57:00,
2013-06-08 23:12:00,62.6,59.3,29.95,WNW,292,0.0,-999.0,89,-99.99,,,0.00,Acu-Link.com,2013-06-09 03:12:00,
2013-06-08 23:28:00,62.6,59.6,29.95,West,270,0.0,-999.0,90,-99.99,,,0.00,Acu-Link.com,2013-06-09 03:28:00,
2013-06-08 23:43:00,62.6,59.6,29.95,South,180,0.0,-999.0,90,-99.99,,,0.00,Acu-Link.com,2013-06-09 03:43:00,
2013-06-08 23:58:00,62.6,59.6,29.95,ESE,112,0.0,-999.0,90,-99.99,,,0.00,Acu-Link.com,2013-06-09 03:58:00,